User: anonymous   Login
Location: NJAA Observatory
(40.6819°N, 74.8979°W)
Time: 21:16:07
(UTC-05:00)
Language:

CENTAUR R/B - Orbit

View from above orbital plane
View from above orbital plane
View from above satellite
View from above satellite

Ground track
Ground track

The orbit data is extracted from the following two-line orbital elements,

1 26906U 01040B   14317.71813153 0.00000160  00000-0  22234-3 0    09
2 26906  63.4635 237.8406 0269000 345.0170  14.9830 13.43927477    01
Epoch (UTC): 13 November 2014 17:14:06
Eccentricity: 0.0269000
inclination: 63.4635°
perigee height: 893 km
apogee height: 1296 km
right ascension of ascending node: 237.8406°
argument of perigee: 345.0170°
revolutions per day: 13.43927477
mean anomaly at epoch: 14.9830°
orbit number at epoch: 0

The dashed part of the orbit path shows where the satellite is in the earth's shadow,  

DLR